This is the latest recevied weather packets stored in our database for station/object MKSRDG. If no packets are shown the sender has not sent any weather packets the latest 10 day(s).
| Time | Temp. | Humidity | Pressure | Rain* | Wind** | Luminosity | Snow |
|---|---|---|---|---|---|---|---|
| 1777766993 | 15° C | 84% | 1011.9 hPa | 0 mm | - | 39 W/m² | - |
| 1777766094 | 15° C | 82% | 1011.9 hPa | 0 mm | - | 178 W/m² | - |
| 1777765194 | 15.56° C | 80% | 1011.3 hPa | 0 mm | - | 396 W/m² | - |
| 1777764294 | 15.56° C | 79% | 1011.5 hPa | 0 mm | - | 408 W/m² | - |
| 1777763394 | 15.56° C | 80% | 1011.7 hPa | 0 mm | - | 446 W/m² | - |
| 1777762494 | 15.56° C | 84% | 1012 hPa | 0 mm | - | 510 W/m² | - |
| 1777761594 | 13.89° C | 83% | 1012.3 hPa | 0 mm | - | 199 W/m² | - |
| 1777760694 | 14.44° C | 81% | 1011.8 hPa | 0 mm | - | 243 W/m² | - |
| 1777759794 | 15.56° C | 80% | 1012.2 hPa | 0 mm | - | 471 W/m² | - |
| 1777758894 | 14.44° C | 84% | 1012.7 hPa | 0 mm | - | 550 W/m² | - |
| 1777757994 | 15° C | 83% | 1012.9 hPa | 0 mm | - | 501 W/m² | - |
| 1777757094 | 14.44° C | 85% | 1012.9 hPa | 0 mm | - | 775 W/m² | - |
| 1777756194 | 13.89° C | 83% | 1013.2 hPa | 0 mm | - | 557 W/m² | - |
| 1777755294 | 14.44° C | 84% | 1013.1 hPa | 0 mm | - | 882 W/m² | - |
| 1777754394 | 13.33° C | 85% | 1013.2 hPa | 0 mm | - | 622 W/m² | - |
| 1777753494 | 13.33° C | 85% | 1013.4 hPa | 0 mm | - | 455 W/m² | - |
| 1777752594 | 13.89° C | 85% | 1013.6 hPa | 0 mm | - | 763 W/m² | - |
| 1777751694 | 12.78° C | 86% | 1013.7 hPa | 0 mm | - | 415 W/m² | - |
| 1777750794 | 12.78° C | 87% | 1013.9 hPa | 0 mm | - | 613 W/m² | - |
| 1777749894 | 11.11° C | 90% | 1014 hPa | 0 mm | - | 457 W/m² | - |
| 1777748994 | 11.11° C | 90% | 1014.3 hPa | 0 mm | - | 169 W/m² | - |
| 1777748094 | 11.11° C | 90% | 1014.4 hPa | 0 mm | - | 192 W/m² | - |
| 1777747194 | 11.11° C | 89% | 1014.4 hPa | 0 mm | - | 334 W/m² | - |
| 1777746294 | 11.11° C | 92% | 1014.5 hPa | 0 mm | - | 381 W/m² | - |
| 1777745394 | 10.56° C | 91% | 1014.4 hPa | 0 mm | - | 464 W/m² | - |
* Rain latest hour (hover to see other rain measurements)
** Current wind speed in m/s (hover to see current wind gust speed)